TimeIST,TemperatureF,Dew PointF,Humidity,Sea Level PressureIn,VisibilityMPH,Wind Direction,Wind SpeedMPH,Gust SpeedMPH,PrecipitationIn,Events,Conditions,WindDirDegrees,DateUTC
1:00 AM,41,38,83,29.72,,West,6.7,,,,,260,2012-10-12 00:00:00
6:00 AM,39.2,35.6,87,29.68,6.2,West,6.9,-,N/A,,Partly Cloudy,260,2012-10-12 05:00:00
6:30 AM,37.4,35.6,93,29.68,6.2,WSW,9.2,-,N/A,,Partly Cloudy,240,2012-10-12 05:30:00
7:00 AM,38,36,91,29.72,22,WSW,8.9,,,,Scattered Clouds,240,2012-10-12 06:00:00
7:00 AM,37.4,35.6,93,29.68,6.2,WSW,8.1,-,N/A,,Partly Cloudy,240,2012-10-12 06:00:00
7:30 AM,39.2,35.6,87,29.68,6.2,WSW,8.1,-,N/A,,Partly Cloudy,250,2012-10-12 06:30:00
8:00 AM,39.2,35.6,87,29.68,6.2,WSW,3.5,-,N/A,,Partly Cloudy,240,2012-10-12 07:00:00
8:30 AM,37.4,35.6,93,29.68,6.2,WSW,8.1,-,N/A,,Partly Cloudy,240,2012-10-12 07:30:00
9:00 AM,39.2,37.4,93,29.68,6.2,SW,8.1,-,N/A,,Scattered Clouds,230,2012-10-12 08:00:00
9:30 AM,41.0,37.4,87,29.68,6.2,SW,6.9,-,N/A,,Partly Cloudy,220,2012-10-12 08:30:00
10:00 AM,44.6,39.2,81,29.68,6.2,WSW,9.2,-,N/A,,Partly Cloudy,240,2012-10-12 09:00:00
10:30 AM,44.6,41.0,87,29.68,6.2,SW,6.9,-,N/A,,Partly Cloudy,230,2012-10-12 09:30:00
11:00 AM,46.4,41.0,81,29.68,6.2,SW,8.1,-,N/A,,Partly Cloudy,230,2012-10-12 10:00:00
11:30 AM,48.2,41.0,76,29.68,6.2,SW,6.9,-,N/A,,Partly Cloudy,230,2012-10-12 10:30:00
12:00 PM,48.2,42.8,82,29.68,6.2,SW,8.1,-,N/A,,Partly Cloudy,230,2012-10-12 11:00:00
12:30 PM,50.0,41.0,71,29.68,6.2,WSW,8.1,-,N/A,,Scattered Clouds,240,2012-10-12 11:30:00
1:00 PM,50,41,61,29.69,16,WSW,6.7,,,,Mostly Cloudy,240,2012-10-12 12:00:00
1:00 PM,50.0,41.0,71,29.65,6.2,WSW,6.9,-,N/A,,Scattered Clouds,240,2012-10-12 12:00:00
1:30 PM,46.4,41.0,81,29.65,6.2,WNW,8.1,-,N/A,Rain,Light Rain Showers,300,2012-10-12 12:30:00
2:00 PM,46.4,42.8,87,29.65,6.2,West,8.1,-,N/A,,Mostly Cloudy,280,2012-10-12 13:00:00
2:30 PM,46.4,42.8,87,29.65,6.2,South,8.1,-,N/A,,Scattered Clouds,170,2012-10-12 13:30:00
3:00 PM,48.2,41.0,76,29.65,6.2,South,6.9,-,N/A,,Scattered Clouds,190,2012-10-12 14:00:00
3:30 PM,50.0,41.0,71,29.65,6.2,SSW,4.6,-,N/A,,Scattered Clouds,200,2012-10-12 14:30:00
4:00 PM,46.4,41.0,81,29.65,6.2,SSW,8.1,-,N/A,,Scattered Clouds,210,2012-10-12 15:00:00
4:30 PM,48.2,42.8,82,29.65,5.0,SSW,4.6,-,N/A,,Scattered Clouds,200,2012-10-12 15:30:00
5:00 PM,48.2,41.0,76,29.65,6.2,SW,4.6,-,N/A,,Scattered Clouds,220,2012-10-12 16:00:00
5:30 PM,46.4,42.8,87,29.65,6.2,SW,3.5,-,N/A,,Partly Cloudy,220,2012-10-12 16:30:00
6:00 PM,46.4,42.8,87,29.65,6.2,SW,2.3,-,N/A,,Partly Cloudy,220,2012-10-12 17:00:00
7:00 PM,44,42,88,29.69,19,WSW,4.5,,,,Partly Cloudy,250,2012-10-12 18:00:00
7:00 PM,42.8,41.0,93,29.65,6.2,WSW,4.6,-,N/A,,Partly Cloudy,250,2012-10-12 18:00:00